Weather in Werkendam

Netherlands     51°48′28″N   4°53′55″E
temp.,
°C
wind,
m/s
gust,
m/s
humid.,
%
clouds,
%
prec.,
mm/h
press.,
hPa
HPBL,
m
28 june, tue
tue2823:00+13wsw33841 0.1 102130
02:00+11sw36885 0.1 1020108
05:00+11sw34905 0.0 102152
08:00+14sw36810 0.0 1021265
11:00+19ssw45530 0.0 10211059
14:00+22ssw45460 0.0 10201996
17:00+24s24386 0.0 10182173
20:00+22e465452 0.0 1017211
29 june, wed
wed2923:00+17ese48664 0.0 1017123
02:00+15ese36647 0.0 101691
05:00+14ese35715 0.0 101577
08:00+18sse35645 0.0 1015216
11:00+24s34474 0.0 1014838
14:00+27sw343395 0.0 10132529
17:00+28sw45325 0.0 10122682
20:00+24wnw355171 0.0 1012145
30 june, thu
thu3023:00+17n34745 0.0 101348
02:00+15nne22809 0.0 101224
05:00+14w11840 0.0 101211
08:00+17nw237080 0.0 1012176
11:00+23e015371 0.0 1012669
14:00+25w1247100 0.0 10111431
17:00+19w5879100 0.5 1011294
20:00+16wnw6990100 2.0 1012603
1 july, fri
fri123:00+14w4896100 2.8 1013380
02:00+13sw4896100 3.4 1014390
05:00+12ssw4997100 0.0 1014298
08:00+13sw510902 0.0 1015471
11:00+18sw7105326 0.0 10161528
14:00+18wsw710579 0.2 10171631
17:00+19wsw7949100 0.0 10171894
20:00+19wsw58536 0.0 1018850
2 july, sat
sat223:00+13sw35753 0.0 102062
02:00+11sw410760 0.0 1020189
05:00+10sw38870 0.0 1021136
08:00+14sw58715 0.0 1021328
11:00+20sw5846100 0.0 10211187
14:00+24sw583950 0.0 10202167
17:00+25sw57341 0.0 10182534
20:00+22wnw56512 0.0 1018325